Regional Weather Roundup
Issued by NWS Green Bay, WI

Home | Current Version | Previous Version | Graphics & Text | Print | Product List | Glossary Off
Versions: 1 2 3 4 5 6 7 8 9 10 11 12 13 14 15 16 17 18 19 20 21 22 23 24 25 26 27 28 29 30 31 32 33 34 35 36 37 38 39 40 41 42 43 44 45 46 47 48 49 50

040
ASUS43 KGRB 030400
RWRGRB

NORTH-CENTRAL AND NORTHEAST WISCONSIN REGIONAL WEATHER ROUNDUP
NATIONAL WEATHER SERVICE GREEN BAY WI
1000 PM CST FRI DEC 02 2016

WIZ005-009-010>012-018-019-030500-
NORTH CENTRAL WISCONSIN

CITY           SKY/WX    TMP DP  RH WIND       PRES   REMARKS
IRONWOOD       CLOUDY    28  25  88 SW8       30.23F
MANITOWISH WTR NOT AVBL
ARBOR VITAE    NOT AVBL
EAGLE RIVER    NOT AVBL
LAND O LAKES   NOT AVBL
RHINELANDER    CLOUDY    30  28  92 W5        30.21S
PHILLIPS       CLOUDY    27  23  85 W3        30.23R
ANTIGO         NOT AVBL
TOMAHAWK       NOT AVBL
MERRILL        CLOUDY    30  25  81 W5        30.25R
$$

WIZ013-073-030500-
NORTHEAST WISCONSIN

CITY           SKY/WX    TMP DP  RH WIND       PRES   REMARKS
IRON MOUNTAIN  CLOUDY    33  26  75 NW6       30.20S
MARINETTE      CLOUDY    35  28  75 NW3       30.24S
OCONTO         CLOUDY    34  27  76 W3        30.24R
$$

WIZ017-030-035>037-045-030500-
CENTRAL WISCONSIN

CITY           SKY/WX    TMP DP  RH WIND       PRES   REMARKS
MEDFORD        NOT AVBL
WAUSAU         CLOUDY    30  23  75 W8        30.24R
MOSINEE        CLOUDY    28  25  86 W7        30.26R
MARSHFIELD     CLOUDY    29  22  75 W5        30.25R
WISC RAPIDS    CLOUDY    31  23  72 NW7       30.28S
STEVENS POINT  NOT AVBL
WAUPACA        CLOUDY    33  26  72 CALM      30.28R
SHAWANO        CLOUDY    35  27  73 CALM      30.26R
CLINTONVILLE   CLOUDY    32  27  80 W6        30.26R
WAUTOMA        CLOUDY    31  23  72 W5        30.30R
$$

WIZ038-039-048-051-030500-
FOX VALLEY

CITY           SKY/WX    TMP DP  RH WIND       PRES   REMARKS
NWS GREEN BAY  CLOUDY    35  29  78 W10       30.26R
APPLETON       CLOUDY    32  25  74 W6        30.25R
OSHKOSH        CLOUDY    32  24  72 W6        30.28R
FOND DU LAC    CLOUDY    32  22  66 W8        30.29R
$$

WIZ022-050-052-030500-
EAST CENTRAL WISCONSIN

CITY           SKY/WX    TMP DP  RH WIND       PRES   REMARKS
EPHRAIM        CLOUDY    35  30  81 NW6       30.21S
WASHINGTON ISL NOT AVBL
STURGEON BAY   CLOUDY    36  29  75 NW9       30.23S
MANITOWOC      NOT AVBL
SHEBOYGAN      CLOUDY    33  26  75 W8        30.28R
$$

LMZ563-521-522-541>543-030500-
LAKESHORE

STATION/POSITION TIME  TEMP    WIND        PRES    VSBY  WAVE
                       AIR SEA DIR/SP/G                  HT/PER
                 (UTC) (F)     (DEG/KT/KT) (MB)    (MI)  (FT/S)
SHEBOYGAN LKSHOR 0300   34     270/ 10/ 12 1025.6R
KEWAUNEE LKSHORE 0330   35     280/  6/  9 1023.2S
ALGOMA MARINA    0251          320/  3/  6   N/A
NORTHPORT PIER   0340   38     310/ 10/ 16 1023.0S
SISTER BAY LKSHO 0253   38     330/ 14/ 17   N/A
CHAMBERS ISLAND  0340   37     280/  6/  9 1023.0S
MENOMINEE LKSHOR 0330   35     270/  6/  8 1022.9R
$$




USA.gov is the U.S. government's official web portal to all federal, state and local government web resources and services.